RH
18 18 17 16 16 16 16 16 16 16 16 15 16 15 14 14 13 14 13 13 13 12 13 12 13 14 14 15 14 14 14 10 8 11 12 15 15 12 12 11 11 10 10 11 10 11 11 11 10 9 11 15 18 24 20 23 47 54 49 42 35 42 41 34 31 30 28 30 39 42 40 35 33 32 27 27 29 30 31 29 28 25 25 25 24 24 24 27
18 18 17 16 15 15 15 16 16 17 16 15 15 14 14 13 13 14 13 13 12 11 12 11 13 12 12 14 13 14 15 10 8 13 13 14 13 11 11 10 10 11 11 10 10 10 12 14 12 12 18 22 19 19 18 20 31 48 57 36 26 42 37 30 31 28 25 25 36 45 43 35 32 32 26 27 31 29 30 30 29 27 26 23 22 24 27 30
18 18 17 16 15 15 14 15 16 15 14 13 12 12 13 12 12 13 12 13 11 11 11 11 12 11 12 12 12 14 14 10 10 14 13 13 13 11 10 10 11 13 11 9 10 8 9 12 8 14 24 23 24 22 19 25 28 40 55 35 25 40 32 29 33 28 27 31 41 44 42 39 34 31 26 30 33 31 32 31 31 28 28 26 23 27 30 31
17 17 17 16 15 15 15 15 14 13 12 11 11 11 11 12 12 11 11 12 11 11 11 11 11 10 11 11 13 13 13 13 13 14 13 13 12 11 10 11 13 12 11 9 9 8 8 8 9 24 29 24 37 36 22 28 29 31 43 32 28 36 25 25 31 32 37 39 43 44 42 41 37 32 29 32 31 30 31 28 29 27 26 27 24 27 30 31
16 16 16 14 15 15 15 14 11 12 12 11 12 10 10 10 9 10 11 10 11 12 12 12 10 10 9 9 13 13 15 17 14 13 13 13 12 11 11 11 13 12 11 9 9 9 8 9 19 39 37 25 41 39 23 29 31 27 31 29 34 34 19 25 36 38 44 43 43 45 40 37 37 33 32 34 28 28 33 29 30 27 24 26 24 26 29 30
16 15 15 15 15 15 13 12 12 14 13 13 12 11 11 10 10 10 10 11 11 11 13 12 9 11 10 9 12 12 16 16 13 14 12 13 12 11 11 11 13 11 11 10 10 10 11 16 22 43 47 32 34 30 25 32 31 26 25 25 32 31 19 26 38 41 45 41 41 42 38 37 35 32 37 35 26 29 39 38 34 31 27 23 23 26 28 30
16 16 16 16 15 13 13 13 13 13 13 13 12 12 12 11 11 10 11 12 12 11 12 12 10 10 11 10 9 13 20 16 13 15 12 13 12 11 11 11 12 11 12 10 10 14 19 20 21 42 54 36 26 24 28 31 32 32 25 21 25 28 27 31 38 43 43 37 39 42 35 35 34 32 38 37 27 31 41 39 34 33 30 24 24 27 26 28
16 16 15 15 14 13 14 13 13 13 13 13 12 12 11 11 11 10 11 11 11 11 9 10 10 9 10 10 11 18 22 16 14 14 12 13 12 11 10 11 12 11 12 11 12 18 21 22 25 38 41 31 24 26 33 28 28 34 24 22 25 30 39 43 45 47 43 39 41 39 32 34 39 36 37 36 27 31 37 34 36 37 32 27 25 27 27 28
14 14 14 14 14 14 14 12 11 12 12 12 12 11 10 10 11 11 12 10 10 9 9 10 9 10 10 9 16 20 17 14 15 14 12 13 12 11 10 10 12 11 11 13 13 13 17 24 28 29 27 30 30 33 40 26 20 29 26 25 27 29 38 40 41 44 41 41 40 33 32 36 40 38 32 30 28 32 35 31 37 37 30 29 26 26 27 27
14 14 13 14 14 13 12 11 11 12 12 12 12 11 11 12 12 13 13 13 10 9 11 9 7 11 9 11 20 18 13 15 14 13 13 12 11 10 11 11 11 11 12 14 14 13 18 21 22 24 27 33 34 36 39 26 23 37 38 32 32 34 35 35 35 42 41 37 37 30 33 37 35 36 26 26 36 37 34 30 34 33 29 30 27 26 27 26
14 13 13 13 13 12 12 11 12 12 11 12 12 12 11 11 11 11 13 13 12 12 12 10 9 9 8 14 22 16 13 15 13 13 13 12 11 11 12 13 11 11 13 16 17 16 16 17 20 23 24 26 33 36 33 31 28 33 36 26 35 41 28 30 33 37 37 32 37 31 30 37 35 34 26 27 41 37 30 31 32 32 30 29 28 27 27 27
14 13 13 13 12 13 12 11 12 12 11 11 12 11 11 11 10 10 13 12 13 14 12 11 10 8 9 15 19 16 14 14 13 13 13 13 12 12 12 13 13 13 13 17 21 19 16 18 20 24 27 27 32 29 28 42 38 33 38 24 33 47 28 25 32 33 32 27 36 35 28 34 35 30 26 33 43 34 30 31 30 31 30 29 29 28 27 27
15 15 14 14 14 13 12 12 12 11 11 11 10 11 10 10 9 10 12 12 12 14 10 10 11 9 14 19 17 14 14 13 12 12 13 14 13 13 12 11 13 14 13 15 20 19 18 17 17 28 41 40 34 25 28 48 45 33 38 35 35 46 39 29 31 34 28 30 38 34 28 30 32 29 27 37 40 30 29 29 28 30 29 29 29 28 27 26
15 16 16 16 15 14 12 11 11 11 11 11 10 10 10 10 11 11 12 11 12 13 9 10 9 8 18 21 14 12 14 13 12 13 12 13 14 13 12 12 12 13 12 15 17 16 17 15 17 31 42 45 36 28 45 57 53 39 32 50 50 37 47 43 39 37 21 33 43 29 30 29 25 27 29 37 35 29 29 27 27 28 28 29 28 29 27 26
15 16 16 15 15 13 11 11 11 12 11 12 10 10 10 10 12 12 13 12 13 12 9 10 8 11 22 19 11 13 13 11 14 15 14 15 15 14 13 11 11 12 12 12 14 14 14 12 21 33 31 40 38 31 51 53 53 56 30 47 61 38 49 53 47 47 23 31 43 27 32 32 23 26 33 38 35 30 29 27 28 28 27 28 27 28 26 26
15 15 15 15 15 12 11 11 11 12 12 13 12 11 11 12 13 13 13 12 12 11 10 10 7 13 22 15 10 14 12 13 16 16 17 17 17 17 14 12 13 13 12 12 13 12 12 20 35 40 29 35 46 42 51 52 57 71 40 34 53 39 43 45 41 52 37 32 37 29 32 31 26 29 34 38 34 32 31 29 29 28 28 27 26 27 26 26
16 15 14 14 13 12 12 11 12 13 13 14 13 12 11 12 11 11 13 12 11 11 10 10 9 12 17 13 11 15 16 16 16 17 17 17 19 18 13 15 16 14 16 12 12 15 18 31 36 36 41 48 63 58 46 53 62 69 56 42 48 43 39 40 38 44 41 33 33 36 37 30 27 29 32 34 34 34 32 30 30 28 29 28 27 27 26 26
15 14 14 14 13 12 11 11 12 13 13 15 14 14 12 11 10 11 13 12 11 12 11 11 13 16 15 12 14 16 17 15 17 19 16 17 18 16 15 18 19 17 23 17 15 25 28 40 43 36 47 49 60 68 43 41 45 40 44 43 47 49 42 43 43 38 37 37 38 41 40 34 30 28 29 31 33 34 32 29 29 29 29 29 29 29 27 28
14 15 14 14 13 12 12 12 12 13 15 15 14 14 13 13 13 11 10 11 16 17 15 18 19 19 16 15 17 16 16 16 18 19 18 19 17 17 17 15 24 25 25 23 20 37 42 41 40 30 36 33 38 58 44 34 39 30 33 40 42 44 41 43 43 42 42 42 44 42 40 36 31 30 30 31 33 33 32 31 30 30 30 29 28 28 29 28
14 15 13 14 13 12 12 12 12 13 14 13 14 13 16 22 21 21 22 23 27 23 20 28 25 21 20 20 20 16 15 15 18 22 20 20 16 19 18 19 39 35 30 35 23 40 57 40 34 39 48 45 38 49 45 40 44 37 37 43 44 42 41 40 38 46 49 44 45 43 40 37 32 31 29 31 35 35 34 32 32 31 29 29 28 28 28 26
14 14 15 14 13 14 14 13 13 12 12 15 14 14 22 25 16 19 27 26 31 29 27 31 26 22 20 19 21 17 15 15 17 22 20 22 20 17 21 30 37 25 37 58 41 48 61 35 33 53 59 52 48 54 51 46 48 44 44 46 49 51 45 38 37 46 48 42 46 45 41 37 31 30 29 34 38 36 35 33 31 31 29 29 29 28 29 27
13 15 16 16 17 18 17 16 16 13 15 20 19 21 29 26 16 17 21 20 26 30 30 28 24 26 22 18 23 19 19 19 15 20 22 23 24 19 25 39 36 27 47 63 45 49 53 29 29 48 55 52 56 62 53 49 52 48 49 47 48 52 47 44 45 49 46 39 43 45 41 35 30 32 34 37 41 38 36 34 31 31 31 30 29 28 28 28
14 16 15 16 17 16 17 16 15 14 18 22 22 24 25 22 20 18 17 20 22 26 32 29 24 27 24 21 23 20 21 23 18 23 26 24 30 33 35 47 51 40 44 49 37 35 33 29 40 49 51 46 47 58 52 46 49 46 43 42 47 47 40 44 47 47 45 40 43 48 46 41 36 36 34 37 46 45 43 42 37 34 32 30 29 30 29 28
14 14 13 14 14 14 16 14 16 16 17 21 21 22 23 22 23 22 24 27 23 25 30 29 29 28 26 24 23 23 24 28 27 24 26 31 37 40 41 52 51 33 38 54 48 33 23 34 55 54 46 39 36 45 44 36 41 51 45 38 47 44 34 40 43 43 43 42 48 49 47 46 41 37 31 34 43 43 44 46 42 39 38 35 33 32 31 30
13 12 12 12 11 14 14 14 17 17 18 22 20 21 22 24 25 22 28 31 26 30 28 24 29 26 22 23 22 24 27 30 31 26 28 35 40 39 40 48 37 24 43 57 43 30 29 43 53 46 43 41 35 36 38 33 37 53 52 42 45 41 36 42 44 44 43 42 45 42 41 44 43 38 32 35 37 33 37 39 34 36 39 40 40 35 33 33
11 12 12 10 10 12 13 16 17 16 18 20 20 20 20 26 25 16 29 39 32 36 30 18 22 21 20 26 29 29 26 27 26 27 31 32 38 35 31 43 37 33 54 52 36 34 38 49 47 38 42 40 35 35 38 42 40 44 50 46 45 42 42 48 46 45 45 43 41 37 40 45 40 34 34 40 38 29 32 34 32 34 35 38 39 36 34 34
12 12 11 10 10 9 12 16 17 17 18 18 21 19 16 22 20 13 28 34 22 26 28 20 21 20 22 30 34 26 20 25 26 28 33 28 33 31 25 40 36 39 62 46 34 44 41 45 44 37 38 33 34 36 38 48 46 43 50 47 45 44 43 48 46 46 50 45 43 41 40 47 45 35 37 41 35 31 32 34 37 37 37 38 36 36 36 34
11 11 10 10 9 8 12 13 15 19 19 21 21 17 18 20 17 20 24 15 12 24 26 25 24 22 31 35 33 34 31 31 24 23 33 27 29 33 30 39 36 43 62 37 30 52 42 37 42 36 35 34 36 37 39 43 34 40 55 51 48 47 47 55 53 57 62 48 47 49 37 45 51 38 41 42 31 33 35 35 42 40 38 40 37 36 36 35
10 10 9 9 9 10 13 11 13 19 19 20 16 17 20 13 18 34 26 8 13 27 27 26 22 23 39 33 29 46 41 33 32 29 35 26 23 35 32 45 56 52 55 42 41 56 44 42 48 35 33 40 42 41 42 37 28 39 55 53 54 57 58 63 62 64 65 52 53 55 41 45 50 39 39 37 28 36 40 40 46 43 40 41 39 38 36 36
9 10 8 9 11 11 14 13 15 18 17 16 15 18 17 20 48 50 22 13 18 25 30 26 24 33 42 28 27 45 34 36 54 45 37 30 29 45 43 53 67 52 55 61 51 53 52 53 58 44 36 41 44 49 50 46 42 41 44 43 48 58 60 67 77 67 55 58 64 58 48 47 47 42 39 32 28 38 40 36 38 37 37 37 38 39 37 36
10 11 8 9 10 11 14 14 20 20 15 16 14 16 15 29 64 48 12 20 24 23 29 27 37 52 50 32 27 44 37 40 59 44 32 35 42 53 42 41 52 50 72 76 47 48 53 46 52 55 53 45 37 44 51 54 54 45 41 39 43 58 57 59 79 69 50 62 67 59 57 52 47 45 39 38 41 44 39 33 32 32 32 33 35 36 37 37
10 11 10 10 10 11 13 16 23 18 13 16 14 30 39 29 37 35 24 27 21 24 32 31 44 54 50 35 26 43 42 34 51 53 43 40 43 46 35 39 44 36 58 66 43 48 56 52 52 49 52 48 32 37 48 52 52 45 48 53 54 65 63 57 69 66 58 62 55 52 57 50 43 37 31 34 37 40 43 39 35 34 33 33 33 34 36 38
11 13 11 11 12 12 15 18 20 14 14 18 19 45 61 37 29 37 35 24 15 30 42 40 50 53 46 32 24 43 42 28 44 55 50 43 37 36 40 54 50 26 35 48 41 50 58 61 54 39 45 46 34 38 43 42 41 38 49 60 58 60 64 68 70 60 60 61 51 53 55 47 43 38 35 34 29 32 43 44 43 42 38 36 36 38 40 40
15 14 11 14 14 14 19 18 16 16 16 20 28 36 33 29 40 39 35 35 30 41 51 49 49 42 37 31 33 46 35 27 43 45 43 39 29 31 36 42 45 46 52 44 37 44 43 41 40 38 44 39 32 40 39 39 43 42 45 48 53 59 57 62 68 61 60 67 63 54 53 54 47 38 38 37 34 39 42 45 51 49 46 45 43 43 41 38
19 14 12 16 15 17 21 17 18 17 14 30 46 37 24 34 43 34 40 48 40 39 45 47 40 28 35 44 48 50 30 25 44 40 36 35 27 34 36 30 42 56 53 39 41 46 34 33 43 47 48 37 35 44 43 42 44 44 45 42 47 60 57 58 69 70 67 74 75 64 59 57 43 31 36 38 40 44 44 47 50 47 47 47 42 38 35 33
18 14 14 16 17 21 20 17 20 15 21 43 41 33 47 49 29 27 44 41 34 35 31 40 42 27 33 41 44 54 39 30 40 32 35 42 34 37 39 37 47 49 37 35 46 45 31 36 51 51 46 41 42 45 44 45 42 41 46 46 45 49 55 58 59 67 73 73 74 66 56 49 39 35 42 44 38 39 44 46 43 41 41 41 37 33 31 31
14 13 15 17 20 21 18 20 20 17 36 46 27 34 61 45 20 37 55 44 41 37 21 30 40 27 26 30 39 56 45 34 41 31 31 40 31 33 42 42 49 51 43 39 40 43 42 42 50 50 39 43 55 50 42 46 47 45 45 47 45 43 55 63 56 67 83 80 73 65 54 54 52 45 43 44 38 35 38 39 36 36 34 33 31 29 29 30
14 17 17 18 21 19 21 23 19 26 45 39 28 47 55 35 36 60 65 53 46 33 18 23 29 26 31 33 37 47 37 36 49 37 30 34 26 29 42 44 52 63 62 50 38 43 48 41 50 60 47 46 55 46 41 44 42 44 45 42 42 46 60 65 59 66 75 74 76 72 67 64 58 53 49 44 41 36 33 34 34 34 31 31 30 28 29 30
17 28 26 21 22 22 21 21 26 38 43 34 35 44 39 38 64 85 82 65 45 31 26 26 25 26 37 46 45 39 33 42 49 35 26 28 24 27 38 40 47 65 70 56 42 45 45 38 47 58 50 47 45 41 50 51 40 41 42 42 49 61 72 68 60 68 70 69 79 82 76 61 51 60 58 42 36 36 33 35 35 33 33 32 31 30 30 31
19 32 31 20 20 26 22 21 39 47 35 43 59 50 39 45 65 91 100 78 48 35 34 32 29 28 36 48 47 34 36 47 46 34 30 32 28 30 45 48 44 57 64 51 45 52 45 36 47 55 50 45 40 41 51 51 48 50 47 50 54 56 66 64 58 69 71 69 82 90 76 51 44 57 52 36 35 37 36 37 35 32 33 31 31 32 32 33
21 28 31 24 19 26 27 28 54 64 42 45 59 50 50 57 60 83 103 88 61 46 43 41 37 36 38 40 36 34 43 53 50 40 36 37 30 27 52 69 56 49 49 38 40 50 43 41 56 58 47 41 39 44 51 49 52 55 53 61 65 60 65 66 64 75 76 69 78 88 73 46 39 51 46 35 36 37 36 38 34 31 31 31 33 35 35 35
27 27 26 24 17 22 31 37 63 77 54 42 48 53 68 72 60 68 82 79 64 49 46 49 46 48 48 38 35 41 44 49 53 46 39 38 31 30 62 89 74 53 48 40 41 54 56 55 57 52 43 41 42 49 58 56 52 50 53 63 70 69 65 60 62 73 76 71 75 89 83 49 34 44 42 36 39 39 36 35 33 31 30 32 33 33 34 34
37 30 20 19 19 24 30 34 47 57 55 56 60 66 80 79 63 60 66 65 58 49 50 54 49 45 45 41 40 42 39 41 47 45 43 44 40 50 84 100 78 53 46 43 43 52 58 52 48 51 52 48 45 51 58 56 46 43 55 65 65 68 69 67 67 70 75 75 72 85 85 54 40 47 39 35 39 36 32 32 32 32 31 31 32 33 34 33
51 38 31 21 14 20 28 33 29 32 57 73 62 57 70 72 63 57 56 56 56 52 51 53 47 41 47 52 45 40 36 32 32 35 40 44 50 71 100 104 76 45 40 50 47 39 44 54 53 52 52 48 49 59 62 56 48 45 57 66 63 68 76 73 67 64 70 70 64 73 75 51 43 45 32 29 34 31 31 33 32 33 32 32 34 34 34 35
38 33 45 35 21 24 40 57 48 38 65 74 51 48 58 58 64 68 59 58 64 61 52 50 51 50 54 54 46 46 44 31 27 36 41 44 53 73 97 102 81 59 66 84 71 42 43 60 53 43 49 50 48 55 58 58 57 53 56 61 58 61 65 63 64 65 68 71 70 72 65 42 32 34 29 30 34 33 34 33 31 33 33 34 36 35 36 39
22 25 44 43 42 46 54 78 77 54 63 63 40 46 54 46 57 72 64 57 62 64 57 52 55 54 50 48 45 49 50 38 34 42 45 47 52 67 94 104 88 80 93 99 82 60 56 60 53 48 53 49 40 43 50 54 54 48 50 56 57 61 62 64 74 76 72 78 77 63 55 47 39 36 35 36 36 36 36 34 34 35 35 37 38 38 41 42
24 25 36 33 39 47 45 63 74 53 45 42 27 34 48 44 44 51 56 60 63 64 57 52 53 45 40 46 45 44 51 48 42 42 44 51 57 68 91 98 85 87 92 80 70 65 55 52 56 58 53 46 43 44 47 50 48 42 46 53 58 67 67 62 67 66 65 76 74 55 50 54 48 39 38 38 37 37 37 37 37 37 38 39 40 42 45 45
23 28 44 38 28 31 26 40 70 67 43 37 39 39 44 47 43 38 43 55 62 59 47 44 52 48 44 46 36 35 47 47 43 45 44 51 59 62 69 75 78 85 74 56 64 73 58 52 61 63 55 50 51 50 48 52 52 51 55 56 58 68 69 62 60 57 55 62 61 49 48 53 48 40 39 39 38 39 39 39 40 39 40 42 44 47 48 48
34 35 48 49 39 47 52 53 72 72 48 43 49 44 43 48 45 42 46 50 52 54 47 37 40 51 58 53 36 36 46 38 34 44 46 46 53 56 51 52 69 85 66 45 60 69 58 62 78 77 63 54 58 59 57 60 62 61 62 61 59 66 70 66 61 56 56 59 55 48 52 54 47 41 41 40 39 42 42 41 42 42 44 47 49 50 51 54
38 29 36 49 52 69 83 73 63 55 45 43 39 37 50 55 45 43 47 43 35 40 48 40 39 58 73 64 44 39 47 38 26 35 45 44 53 63 54 45 64 83 69 55 60 52 44 65 89 85 63 54 66 71 65 67 69 61 61 63 61 63 68 71 69 65 66 67 61 60 68 66 51 42 43 42 41 44 44 45 47 46 48 51 52 53 56 59
36 28 34 45 44 58 74 70 61 49 40 41 36 36 49 53 49 45 43 51 50 40 45 49 51 66 76 70 58 49 52 51 38 40 48 43 50 61 47 43 70 84 71 66 65 50 47 65 79 75 60 56 67 67 57 63 68 62 61 61 55 51 56 67 73 71 67 65 64 70 75 66 48 40 43 44 44 47 49 50 51 49 51 53 54 57 60 62
40 30 34 36 28 46 70 65 51 38 37 52 51 40 44 55 64 52 35 57 78 64 59 64 58 57 60 61 62 58 61 65 59 62 68 62 70 79 63 59 80 86 75 72 73 67 66 69 69 67 63 64 67 57 50 60 68 60 50 44 44 46 49 57 64 62 58 58 64 69 63 50 41 43 49 50 51 54 54 53 53 53 54 54 55 60 63 65
Wind_Speed
11 10 10 9 10 10 10 9 8 8 6 5 4 4 3 3 3 3 4 4 3 3 2 2 2 4 5 6 8 7 8 14 24 31 25 18 24 20 17 14 11 8 2 1 2 3 5 9 8 7 7 8 6 3 4 4 3 4 3 3 1 3 3 5 7 6 3 3 5 4 6 6 3 3 2 1 1 0 2 3 4 5 7 10 10 10 8 8
9 9 9 8 8 9 8 7 6 5 5 3 3 3 3 3 2 3 3 2 3 5 5 5 5 6 7 6 8 7 5 9 23 29 22 22 26 19 14 12 8 5 3 3 3 3 5 4 5 9 8 4 4 4 3 3 5 4 3 3 1 4 4 4 7 6 2 3 6 5 4 5 4 4 4 2 2 1 3 5 3 6 10 11 11 9 7 14
8 8 8 8 7 7 6 5 4 4 5 3 2 3 3 3 2 2 2 1 5 7 8 8 7 8 8 9 9 6 4 8 16 16 22 27 26 20 15 10 6 5 4 5 7 8 9 6 6 8 5 4 3 3 3 4 4 2 3 3 2 5 3 3 5 6 3 4 8 5 3 3 3 4 4 3 1 2 6 6 4 7 12 10 8 10 11 16
6 5 6 7 7 6 6 6 5 5 5 3 2 2 3 2 1 1 1 2 4 8 11 9 6 7 7 7 8 7 4 7 8 12 22 27 26 21 14 9 6 6 5 8 10 10 10 10 12 8 5 4 4 3 4 4 2 2 3 2 3 3 2 2 4 4 2 4 7 5 4 2 3 3 3 4 2 4 8 9 9 12 13 9 8 12 16 17
5 4 6 8 8 8 8 7 6 5 5 3 2 3 3 1 0 1 1 2 1 3 10 14 13 14 16 12 5 8 1 4 5 16 22 25 26 20 12 9 6 7 7 8 8 8 7 8 10 7 6 4 5 5 3 4 2 4 2 2 3 3 2 1 2 3 3 5 6 5 4 3 2 2 4 7 5 6 6 8 11 12 10 9 12 16 17 17
7 6 8 9 10 10 9 8 5 5 4 3 3 4 4 2 1 1 2 3 2 3 4 9 11 10 13 17 6 6 5 3 8 18 20 23 25 17 10 7 5 6 5 5 5 6 6 8 8 5 4 3 4 5 2 5 2 4 1 1 2 3 2 1 2 3 3 6 6 5 3 3 4 3 3 8 11 8 4 4 6 8 8 11 15 17 16 17
9 9 10 12 12 11 9 6 5 5 4 3 5 6 5 4 3 3 3 4 3 6 6 5 9 10 8 11 14 12 8 2 11 17 18 22 22 14 9 6 4 2 1 5 7 5 5 8 7 4 4 4 2 3 2 5 5 5 2 1 1 1 1 0 2 2 3 5 4 3 2 3 5 4 1 7 16 9 4 2 3 6 8 10 12 15 17 20
11 11 11 12 11 9 7 5 5 5 3 2 7 7 6 6 6 6 6 5 3 6 8 9 11 11 8 3 7 10 5 4 14 16 17 21 20 14 7 6 5 2 5 10 6 5 5 7 5 4 4 3 2 3 3 5 6 5 3 2 1 2 2 2 3 3 3 2 2 3 2 3 5 3 1 10 16 9 6 2 1 4 6 9 10 13 18 19
10 9 9 9 8 7 5 4 5 5 2 4 7 8 8 10 11 11 9 9 8 6 5 7 10 8 5 3 6 6 3 6 12 14 17 19 19 16 11 10 7 6 11 13 7 4 4 2 3 5 5 3 4 3 2 3 2 2 3 2 3 3 3 2 3 4 3 2 2 3 3 4 1 2 5 12 11 5 6 4 3 5 6 7 7 12 18 19
7 6 7 7 6 5 4 4 5 4 4 5 7 7 7 8 9 10 10 11 11 9 10 11 10 4 1 3 7 5 3 6 10 13 15 16 19 20 19 16 10 11 14 16 14 9 5 7 6 8 9 3 3 3 2 2 2 3 5 4 5 2 1 2 1 2 1 1 2 3 5 4 1 2 5 7 3 2 6 4 3 5 6 7 6 11 18 20
4 4 5 5 5 4 3 4 5 5 5 5 5 6 6 5 7 8 8 10 9 8 9 11 12 9 10 10 7 5 3 6 8 13 14 15 21 24 23 18 13 15 17 17 16 12 13 15 12 8 4 2 3 4 3 1 2 4 5 4 5 4 1 1 2 2 0 0 3 3 4 3 2 2 10 7 1 2 5 5 4 5 6 6 6 8 14 20
3 3 3 4 5 3 3 3 5 6 5 4 3 3 5 5 6 6 5 8 11 10 9 7 5 4 14 15 6 3 5 6 6 10 12 13 19 21 21 20 16 14 14 15 10 9 13 9 9 7 1 4 3 3 2 1 3 3 3 2 4 6 2 3 1 0 1 1 4 3 4 4 3 8 13 4 2 2 3 5 6 6 6 5 5 5 10 19
3 2 2 3 4 2 2 3 5 6 4 3 1 1 4 5 6 5 4 7 10 10 9 10 5 2 7 7 3 4 6 8 5 5 10 11 13 15 16 18 19 17 16 17 12 9 8 5 13 11 3 6 3 0 4 3 4 1 3 2 2 6 3 4 2 1 1 1 1 1 5 5 5 12 12 2 3 3 2 6 6 5 5 4 5 4 7 16
3 2 2 3 2 2 2 3 5 6 4 3 1 2 4 5 5 5 5 7 8 7 7 11 8 4 8 2 1 5 5 6 5 6 11 10 8 9 11 13 16 18 18 20 17 14 12 12 18 12 3 5 3 2 4 5 4 0 2 2 2 3 4 4 1 1 2 0 3 2 3 7 7 10 8 2 4 4 5 8 6 5 5 4 5 5 6 13
2 1 2 3 1 1 2 3 5 5 5 4 3 3 3 3 4 6 5 5 6 6 6 9 6 5 8 2 0 5 4 5 8 11 13 11 9 6 6 10 12 13 14 15 13 12 11 10 12 7 2 2 3 5 4 3 3 2 1 3 2 0 4 6 2 2 2 1 4 2 4 8 10 9 4 1 4 5 7 8 6 6 7 6 6 6 6 10
2 2 2 2 0 1 2 3 4 5 5 6 6 3 3 3 4 5 5 5 6 5 5 7 7 5 6 1 1 4 5 6 10 11 9 9 11 7 3 5 7 8 8 9 8 7 12 11 6 3 2 2 4 5 3 3 3 3 1 2 3 0 3 5 2 0 0 0 2 1 4 7 7 5 2 2 4 5 6 9 9 8 8 7 6 6 6 8
3 3 2 2 1 1 2 3 3 4 5 6 7 5 4 3 5 4 3 4 4 5 6 6 6 6 5 1 2 2 4 6 8 8 7 8 10 8 5 2 4 5 4 7 8 6 10 9 2 1 3 3 3 4 4 3 3 3 2 1 3 2 2 4 3 2 2 1 2 2 5 12 12 8 4 2 5 6 7 10 10 9 8 6 6 6 6 7
3 4 3 2 1 1 2 2 3 3 5 6 6 5 4 4 6 4 3 3 2 3 4 5 6 5 3 2 1 3 5 5 7 8 6 5 6 8 8 5 3 5 5 4 7 7 6 5 2 1 3 4 3 4 2 2 3 2 2 2 2 2 3 4 4 2 1 0 4 3 7 16 17 13 10 7 7 8 11 11 10 10 8 6 6 6 7 8
5 6 5 3 2 1 1 1 2 1 3 4 4 4 3 3 4 5 8 7 2 1 1 3 4 2 1 2 2 4 3 3 6 8 9 6 4 5 7 8 4 4 4 1 4 6 3 3 3 1 1 1 1 3 3 4 4 4 3 3 2 5 4 5 5 3 1 1 5 7 10 16 16 15 11 8 8 9 11 10 8 9 6 6 6 6 8 8
7 7 5 3 2 2 3 2 1 1 2 3 5 6 4 2 3 4 9 11 4 2 1 1 1 1 1 2 4 3 0 2 4 8 12 9 4 3 5 8 6 6 4 1 3 3 3 3 0 3 4 4 3 4 4 3 4 4 3 2 3 4 5 5 3 3 0 1 6 7 10 16 16 16 12 7 6 8 9 8 8 9 7 7 7 8 10 9
8 6 5 3 2 3 3 3 3 3 5 7 6 3 1 1 2 1 3 5 1 2 2 1 1 1 1 2 5 4 1 2 3 9 14 10 4 2 3 6 6 4 3 1 3 3 4 2 3 5 6 4 3 4 5 4 4 4 3 2 3 3 6 4 1 3 1 1 5 3 9 18 15 14 11 3 4 6 8 8 9 10 9 8 8 11 12 10
7 6 6 4 4 4 4 4 4 5 6 4 1 5 4 3 3 3 2 2 1 1 2 2 1 3 2 1 5 5 2 3 2 8 14 10 5 2 2 5 5 0 4 3 2 5 4 2 4 4 5 5 5 4 5 4 3 3 2 0 3 3 4 5 2 3 2 1 4 5 9 17 16 13 10 3 4 5 6 8 8 8 8 8 9 10 11 11
6 6 6 5 5 5 5 6 6 5 5 4 7 8 7 6 6 3 3 3 1 2 2 3 2 3 4 2 4 5 4 3 2 6 14 11 4 2 2 5 4 1 4 4 1 1 3 4 3 3 5 6 5 3 5 3 1 1 2 1 4 3 1 3 3 3 3 2 4 6 7 12 12 8 6 3 3 4 4 6 7 6 9 11 9 8 9 12
5 6 6 5 5 5 5 6 6 7 10 11 12 11 8 7 5 3 3 2 1 1 1 1 1 1 1 2 5 4 3 1 1 5 12 8 2 1 3 4 3 2 1 1 5 3 2 3 2 4 4 5 3 1 3 2 2 2 4 4 3 2 2 4 3 6 5 1 2 6 5 5 5 4 5 3 2 4 3 4 7 7 9 10 8 9 11 12
5 6 7 6 5 4 4 4 5 8 10 11 11 10 8 6 3 3 4 3 2 3 2 1 1 1 1 3 6 2 2 1 1 3 8 6 2 0 2 2 1 1 3 3 3 1 2 2 2 4 4 4 4 2 3 5 2 4 4 6 5 3 2 3 5 6 5 2 1 3 4 4 4 4 6 3 4 6 3 3 8 8 7 7 8 11 12 11
5 6 7 7 5 5 3 2 3 4 4 5 7 7 7 6 4 3 4 4 3 4 2 0 0 1 1 4 7 2 2 2 2 3 5 5 1 2 2 1 2 1 4 4 1 2 1 1 1 4 4 4 3 3 4 5 1 4 3 5 6 3 1 3 4 3 2 4 2 2 1 4 5 5 6 4 6 9 6 5 9 8 6 6 8 10 10 10
6 6 8 7 5 5 3 1 2 1 1 1 4 5 5 4 3 2 4 5 3 2 1 1 0 3 1 3 5 1 0 4 2 2 4 4 3 1 1 2 0 1 3 2 2 2 3 3 2 3 4 3 1 4 5 7 4 3 3 4 4 1 3 3 2 1 2 3 3 3 1 2 5 6 4 4 5 8 7 7 8 7 7 8 8 10 10 11
6 6 7 7 5 5 4 3 2 2 2 2 3 2 2 1 1 1 5 3 2 0 2 1 0 3 2 2 3 3 2 3 2 1 4 4 2 2 2 3 5 3 2 3 3 4 2 4 4 4 3 2 4 4 5 7 1 4 4 2 1 2 2 3 4 2 1 2 3 3 2 0 5 6 3 3 4 6 7 8 8 7 8 8 8 10 10 11
6 6 6 7 6 4 5 4 3 2 1 3 4 0 1 2 2 4 5 1 2 1 1 1 1 2 4 3 4 3 1 2 1 3 5 3 1 4 2 2 6 4 0 1 4 4 1 3 6 6 4 4 5 2 4 6 1 3 5 2 2 3 2 3 3 2 2 2 3 4 2 1 5 6 3 2 1 4 7 7 7 8 8 8 9 10 10 9
6 6 6 6 5 3 3 5 3 2 2 4 4 1 3 3 3 7 3 2 1 1 1 1 2 3 5 4 4 4 2 2 3 4 4 1 2 5 2 2 5 5 1 4 1 3 1 0 2 3 2 4 3 1 2 3 3 1 3 2 2 3 3 2 2 3 3 2 5 4 2 1 3 6 3 2 2 4 5 6 7 8 9 9 9 9 10 8
6 5 6 6 4 4 4 3 2 2 3 4 2 2 3 3 5 6 2 4 0 1 1 1 2 4 6 2 3 4 3 3 5 3 3 2 3 5 3 0 2 3 3 4 3 4 3 1 1 1 1 3 4 2 1 1 2 2 2 2 3 3 3 3 3 3 3 3 4 3 2 1 2 6 5 4 5 5 5 6 8 10 10 10 9 8 9 7
6 5 6 6 5 4 3 2 2 3 4 3 0 3 4 3 2 2 4 4 2 1 1 1 2 3 4 2 2 3 3 3 3 3 2 2 2 2 2 1 1 2 4 3 2 5 2 2 2 2 0 3 2 1 3 3 3 3 3 3 4 4 4 3 3 1 1 3 2 1 2 1 5 9 8 10 11 9 8 8 9 10 10 11 11 9 8 7
6 6 6 6 4 4 4 3 2 4 4 2 2 5 7 4 2 3 3 3 2 1 1 0 2 1 2 4 2 2 2 2 2 4 1 0 2 2 1 2 3 0 2 2 1 4 4 3 2 1 0 1 2 2 1 2 2 3 2 3 2 2 4 4 4 2 3 3 2 2 1 3 5 7 9 12 13 10 7 8 9 9 10 11 11 10 10 10
7 7 6 6 6 5 5 4 4 5 3 2 4 5 5 1 4 3 2 4 2 2 1 1 3 3 1 2 3 2 1 1 2 3 1 2 2 3 2 2 1 2 3 1 1 0 1 4 1 1 1 1 1 2 2 2 2 1 2 3 2 3 1 4 3 3 5 4 3 2 1 3 3 4 6 9 9 8 7 7 7 8 9 9 9 9 10 10
5 6 5 6 7 6 5 4 4 4 2 3 6 5 2 3 4 2 2 4 1 2 1 1 2 3 3 3 2 1 0 2 2 2 2 1 2 3 2 3 2 3 4 1 2 2 1 4 2 1 2 2 1 1 2 4 2 1 2 3 1 3 3 2 3 3 1 2 3 2 3 5 4 7 8 5 5 6 6 5 5 7 7 5 7 9 8 8
3 4 5 7 7 6 5 3 3 3 2 5 6 3 3 4 2 3 3 1 1 0 2 3 2 2 4 4 3 3 1 1 2 2 2 2 3 3 2 2 2 2 3 3 2 1 0 4 3 2 2 3 1 3 1 2 0 0 1 1 3 3 5 3 1 1 3 1 3 2 4 5 4 7 8 6 5 6 6 6 5 8 8 6 7 8 8 8
3 4 4 6 6 5 4 3 3 3 4 7 4 2 4 3 1 3 2 0 0 1 3 3 2 1 2 3 3 4 2 2 3 2 2 3 2 2 2 1 1 1 1 1 2 1 1 4 4 1 1 1 1 2 2 2 1 2 1 3 2 1 4 3 1 3 3 2 3 2 6 6 2 4 7 8 7 7 8 8 9 9 9 8 9 10 11 11
2 4 4 6 6 3 3 3 4 4 5 6 2 4 3 1 0 1 2 1 1 2 3 1 3 1 1 1 3 3 1 2 3 2 1 2 2 2 3 1 1 1 2 1 1 0 2 2 5 1 1 3 2 1 2 3 2 2 2 2 2 1 1 1 0 2 2 3 4 3 7 5 3 4 5 5 6 8 10 10 10 11 10 10 11 12 13 12
2 2 3 4 4 3 3 3 3 4 5 3 2 2 1 1 1 1 1 1 2 2 1 3 2 1 1 3 3 3 1 2 1 1 1 2 2 1 3 1 1 0 3 2 2 1 2 1 4 2 2 2 3 1 2 2 3 3 1 1 2 2 3 1 1 2 1 3 4 4 6 4 5 5 4 6 8 9 10 10 9 11 11 10 11 12 12 11
2 1 1 2 4 3 3 3 3 5 4 2 4 2 1 1 1 1 1 1 1 1 1 3 1 1 2 3 3 2 1 2 2 1 2 2 2 2 2 1 2 1 2 2 2 0 2 2 3 4 2 2 1 2 5 4 2 1 1 1 1 1 1 0 0 2 2 2 3 2 5 6 4 4 5 7 9 7 7 9 10 12 12 11 10 11 10 10
3 2 2 2 3 2 3 5 4 3 3 1 2 1 1 1 1 1 2 1 1 0 1 2 3 2 2 2 2 2 1 1 2 2 3 2 2 1 2 2 1 2 0 2 2 0 1 3 3 3 3 2 3 2 3 5 5 4 3 4 3 3 3 0 3 1 2 2 4 2 6 9 3 3 5 6 6 6 7 9 11 14 14 12 10 9 9 11
4 1 2 3 2 1 4 5 2 1 3 1 1 1 0 1 1 1 1 1 0 0 1 1 2 3 2 2 2 2 2 2 2 2 3 3 3 1 1 2 1 1 2 1 2 2 2 3 1 4 5 3 2 1 1 1 3 4 2 2 3 3 5 3 4 3 1 2 1 3 3 7 2 2 4 4 4 5 8 10 13 16 14 11 11 11 12 14
3 2 1 5 2 1 4 3 2 2 0 2 1 1 0 1 1 1 0 1 1 1 1 1 2 2 1 1 0 1 2 2 3 3 3 3 2 2 1 3 2 1 3 1 2 1 1 2 1 4 5 2 2 2 3 3 3 2 1 1 3 2 3 4 4 2 2 3 1 2 4 6 3 2 3 4 5 8 11 12 14 15 14 13 13 14 15 16
2 2 1 6 4 1 3 1 1 2 3 2 2 1 0 1 2 1 1 2 1 2 1 1 2 1 1 1 1 2 3 2 2 2 1 2 2 1 1 3 2 1 1 2 2 1 1 1 1 3 6 6 5 5 5 3 0 2 2 1 2 3 5 2 2 2 1 5 5 3 7 7 3 5 8 10 12 13 13 13 13 14 15 14 14 15 16 16
2 0 2 5 6 5 2 3 4 2 2 1 2 2 1 1 1 2 2 2 2 3 2 1 1 1 1 1 0 2 2 2 3 2 1 1 3 1 1 4 2 1 2 2 1 0 2 2 2 0 3 5 5 5 3 2 2 1 1 1 3 3 5 2 1 2 2 4 5 4 8 10 9 12 14 14 14 15 15 14 14 14 13 13 13 15 15 16
1 1 2 5 6 6 3 1 4 4 2 1 1 2 1 0 2 1 2 2 1 2 1 0 0 1 1 1 1 3 3 2 1 2 1 2 4 2 1 2 1 1 2 1 2 2 2 1 3 5 6 7 7 6 1 2 2 4 3 3 5 4 5 4 2 2 3 2 2 6 11 15 17 16 14 14 15 16 15 15 15 15 14 13 13 15 15 15
1 1 0 1 3 3 3 3 3 3 1 2 1 1 1 2 3 1 1 1 0 1 1 1 1 2 2 2 1 2 2 1 1 1 2 3 3 3 2 1 0 2 2 1 2 4 4 2 4 6 10 11 7 7 2 2 4 6 5 6 6 3 5 5 4 7 3 1 5 8 9 13 17 16 15 16 16 16 15 15 16 15 14 14 15 17 18 15
1 2 1 1 0 0 2 2 2 4 2 1 2 1 1 2 2 1 1 0 1 0 1 0 1 4 5 4 1 1 2 2 2 3 2 2 2 4 3 0 0 4 3 2 2 3 5 4 3 3 9 10 6 9 8 4 5 3 3 8 7 3 7 8 10 10 4 3 11 13 11 12 16 18 18 17 15 15 15 15 15 16 17 17 18 20 19 15
2 2 0 2 1 2 1 1 3 5 3 1 1 1 2 2 3 3 2 1 2 1 1 2 4 4 4 4 2 2 3 1 3 4 2 2 2 1 2 1 0 3 3 2 2 1 4 4 2 1 7 10 5 7 6 3 2 2 4 8 7 5 8 9 10 10 7 10 15 17 17 17 15 16 17 15 13 12 12 13 15 18 19 18 20 21 16 13
1 2 1 2 3 1 1 2 3 4 2 1 0 2 2 4 4 3 1 2 1 2 2 3 5 3 3 4 4 4 6 5 3 5 4 2 2 2 2 3 2 2 3 2 1 1 1 3 0 3 5 8 3 4 2 4 4 4 6 6 4 4 5 5 6 7 6 9 13 13 14 14 11 11 13 12 11 10 12 16 18 19 19 20 21 18 13 14
2 3 4 4 2 0 1 2 2 4 1 1 2 2 1 3 5 3 1 2 2 3 5 6 4 2 1 3 5 7 7 6 5 6 6 4 3 3 2 1 4 3 1 1 0 1 1 2 1 5 4 6 1 6 6 2 4 2 5 5 6 4 3 3 5 5 6 9 11 8 7 9 8 9 13 14 14 14 15 17 18 18 20 21 19 14 13 17
4 3 3 4 1 1 1 1 2 2 1 2 2 2 1 2 3 2 1 1 1 2 5 6 5 2 1 3 6 7 5 5 5 5 3 2 0 2 1 2 5 5 4 3 1 1 3 2 1 2 2 6 4 8 9 2 5 2 2 4 7 7 5 5 5 6 7 6 6 6 6 9 12 14 18 21 22 20 18 16 16 18 20 19 15 13 16 20
Wind_Direction
99 107 118 126 128 125 118 110 104 99 90 81 79 98 117 126 128 129 129 100 52 32 28 8 24 6 356 2 2 4 17 47 54 45 41 9 349 343 333 331 336 348 27 49 160 175 61 48 41 60 70 50 19 341 33 31 44 55 77 81 110 166 198 184 173 190 161 174 196 202 192 168 186 204 181 122 80 231 267 277 260 270 256 247 260 280 285 203
97 102 113 125 131 129 122 113 100 83 70 63 74 103 127 137 139 134 136 85 10 349 331 309 309 312 322 321 324 347 348 27 45 36 20 2 356 349 343 348 351 17 96 89 84 116 72 14 12 53 57 42 352 358 32 4 40 76 109 80 193 187 197 189 171 179 162 148 165 181 193 184 193 171 154 198 249 214 241 261 258 276 265 254 254 253 223 186
97 102 113 124 134 130 125 110 84 74 69 59 59 92 126 139 135 128 134 24 7 1 345 316 301 299 306 294 295 314 312 28 44 15 358 2 358 353 357 1 15 52 100 96 81 85 86 75 61 66 58 51 3 3 37 11 30 98 108 86 228 199 200 210 182 185 197 144 142 168 178 196 221 156 150 199 218 195 222 234 203 239 248 237 221 209 193 187
97 107 119 125 133 128 119 105 89 84 71 49 28 70 117 139 116 116 115 7 24 32 29 31 36 26 2 305 279 266 278 42 38 336 351 1 356 355 3 10 39 79 105 98 89 83 83 73 63 66 70 52 342 11 40 357 18 79 87 139 199 170 145 209 202 193 188 142 141 143 130 228 235 156 173 166 157 241 232 227 209 218 229 218 197 196 193 194
93 112 125 125 126 121 112 106 94 82 64 45 39 76 102 121 52 36 318 343 14 52 39 48 53 44 34 10 282 225 213 58 344 340 355 358 356 356 5 22 70 103 101 97 90 73 62 53 56 52 59 49 347 25 28 334 56 65 30 196 189 156 128 182 192 162 133 105 112 125 150 208 159 159 195 166 195 235 224 225 220 220 216 195 189 193 195 201
93 109 120 117 116 116 111 103 84 62 49 47 70 84 83 76 53 6 314 316 269 240 350 27 31 25 30 32 59 154 106 91 329 347 356 359 359 357 9 31 92 97 85 96 71 54 43 36 53 48 54 57 12 46 359 320 47 86 34 253 243 201 166 153 145 144 136 114 130 163 183 148 129 251 211 184 224 227 190 216 227 228 217 197 189 187 193 204
93 103 110 110 113 114 107 95 69 44 29 49 87 80 65 59 52 27 1 334 273 254 285 321 353 353 359 38 67 77 84 72 342 352 359 4 3 1 16 35 65 42 50 80 60 76 67 46 70 97 76 70 50 70 4 336 40 84 135 234 315 190 161 264 143 123 119 130 166 164 127 145 179 239 63 210 236 230 200 221 241 235 215 197 186 187 200 207
91 98 102 105 109 105 96 84 56 39 27 86 93 75 65 75 77 70 55 32 341 283 285 290 308 328 341 11 79 61 58 341 347 358 2 7 14 17 25 39 48 57 74 65 60 118 92 60 103 142 78 72 130 89 8 12 38 71 140 198 92 51 12 19 79 59 61 98 89 106 150 222 196 207 286 241 244 234 209 209 176 195 189 191 190 197 205 211
94 94 95 102 103 91 85 63 39 46 77 115 97 79 79 86 81 74 65 48 30 358 326 320 307 307 348 45 97 66 354 333 352 2 5 10 25 36 45 48 55 85 73 58 57 107 105 101 177 159 123 141 129 76 358 47 46 126 124 138 96 39 355 34 56 47 41 48 83 131 245 274 251 271 266 249 252 228 189 184 146 154 180 199 202 204 206 214
103 96 94 98 89 79 69 37 33 65 108 119 99 81 77 75 65 59 56 46 43 48 46 34 13 340 293 51 76 76 319 341 2 6 8 14 31 43 48 52 69 86 76 62 58 62 95 148 158 132 119 116 99 52 355 91 120 123 101 95 81 38 306 45 86 105 53 345 144 194 261 274 327 319 261 254 273 135 170 188 174 169 201 211 211 213 212 219
105 98 98 97 79 72 53 32 39 75 111 125 106 81 61 46 38 37 43 36 30 33 26 30 35 52 76 72 83 94 353 351 11 14 12 21 36 42 44 50 68 80 81 70 62 72 103 128 134 119 105 91 95 45 22 102 111 92 101 99 29 358 305 48 119 160 289 236 182 198 252 247 51 257 243 260 1 140 177 198 208 204 222 219 220 224 219 225
103 92 93 88 71 52 42 41 43 68 107 127 122 81 44 24 14 12 28 19 5 1 355 5 10 53 70 65 73 74 13 9 23 21 17 28 40 44 44 47 57 69 84 80 69 92 107 124 110 86 72 124 113 47 86 104 76 75 84 107 339 359 344 294 53 134 290 174 194 217 285 249 171 229 245 269 65 139 177 216 227 224 237 233 229 235 227 232
87 79 79 75 64 46 52 48 43 55 84 112 149 352 9 2 359 355 359 354 353 7 18 20 351 251 77 64 36 39 32 29 34 24 25 33 40 44 46 48 58 62 77 84 78 86 99 115 100 95 92 102 106 108 119 63 47 52 36 82 320 357 333 299 28 23 217 123 259 315 303 269 212 237 251 260 120 125 205 237 241 234 242 242 236 243 238 238
66 58 66 69 62 70 72 56 54 50 52 59 6 332 342 348 354 344 344 348 357 14 19 18 18 90 84 98 350 40 45 39 35 19 21 26 28 43 53 53 62 63 71 81 79 77 85 97 95 94 65 76 121 105 61 20 24 24 9 47 1 352 291 296 5 194 177 15 6 59 266 274 264 257 258 228 157 157 227 243 242 241 244 243 239 241 247 243
73 43 48 64 66 108 92 62 56 50 50 44 20 2 2 12 0 353 2 6 14 14 7 12 18 95 80 64 38 42 47 41 29 18 14 16 17 26 58 60 61 63 67 71 74 69 60 74 79 74 50 27 76 81 41 360 18 29 353 313 344 77 276 304 309 193 187 325 13 69 242 275 277 275 287 222 165 178 231 248 245 243 244 242 244 241 248 252
88 68 50 66 65 118 71 48 58 59 58 48 43 50 49 31 354 0 21 24 30 18 14 18 16 77 90 61 63 41 35 28 16 15 14 19 21 17 36 57 53 54 65 56 60 54 35 49 67 59 103 52 62 83 48 16 358 359 55 266 283 219 296 316 327 300 290 38 357 231 245 278 272 275 345 105 177 198 235 254 251 246 246 243 243 243 248 258
86 92 76 65 6 358 41 51 82 81 64 55 54 59 64 37 357 348 343 6 39 21 22 26 19 59 79 45 77 14 350 6 6 12 22 25 30 34 33 37 21 21 49 41 36 28 22 39 89 338 65 60 67 84 44 5 311 327 25 277 258 230 261 305 310 336 42 67 257 220 237 261 262 263 283 207 194 206 233 249 252 249 249 245 243 246 249 252
94 96 79 56 359 331 51 71 101 89 65 56 51 51 57 42 23 17 328 312 296 332 10 19 19 59 51 2 45 309 304 340 8 16 18 17 24 32 37 40 8 359 16 24 26 27 16 26 71 54 31 17 34 80 71 275 236 240 278 283 303 283 231 264 281 269 66 325 250 250 257 263 268 269 265 245 208 213 239 247 254 256 252 249 247 245 249 250
107 99 83 62 18 342 7 52 103 99 58 46 24 359 336 325 4 34 39 43 34 354 6 346 13 105 213 322 311 310 306 346 17 21 18 11 355 3 29 35 30 34 36 347 13 25 26 30 46 66 342 341 59 123 156 195 171 176 212 189 245 282 265 241 256 255 195 290 258 245 259 270 280 282 273 253 220 221 246 252 258 260 252 252 251 246 250 249
111 99 84 51 13 1 357 4 13 294 310 320 322 335 340 339 349 0 30 44 68 113 113 264 37 88 351 335 325 327 5 50 33 27 18 6 356 6 16 18 26 49 54 282 324 6 71 69 213 212 209 210 194 164 136 129 127 120 131 160 229 261 283 261 267 294 151 287 260 239 269 279 283 284 281 263 223 227 247 253 257 256 252 252 250 253 251 246
107 88 67 36 19 28 7 348 339 303 294 292 296 336 107 139 29 325 17 32 45 103 37 272 214 327 297 309 336 339 157 72 32 25 18 5 16 37 332 16 43 35 14 271 282 350 64 79 234 217 198 174 148 145 109 84 85 86 132 232 271 236 262 269 296 310 1 345 270 292 304 289 285 287 290 273 199 227 232 234 249 251 253 255 251 256 256 255
95 72 59 47 42 39 13 352 349 328 315 299 189 111 127 160 130 129 125 85 341 17 25 4 356 327 304 298 343 356 53 57 358 2 9 6 29 50 315 44 73 302 346 355 308 356 23 230 230 198 160 105 75 89 78 74 90 80 120 238 295 254 270 293 340 333 348 290 289 348 321 292 292 295 295 275 205 236 231 225 242 249 254 255 248 254 261 267
82 65 53 43 39 33 23 21 17 19 38 87 112 108 107 110 119 116 91 101 350 345 16 31 42 336 333 340 352 19 62 70 267 328 355 4 31 64 92 73 77 116 5 15 154 2 330 258 220 151 131 97 67 55 74 79 104 160 183 232 283 292 327 288 316 334 292 254 286 312 298 285 297 305 297 279 229 264 262 242 246 242 249 255 253 256 259 263
73 50 38 31 29 25 31 35 36 61 83 96 98 102 106 96 101 102 77 91 298 334 24 34 153 189 343 354 357 28 95 101 216 313 347 13 94 57 88 116 104 101 15 80 144 168 258 258 134 108 87 94 112 82 113 150 299 264 209 201 239 268 240 238 296 324 303 305 290 298 299 281 303 323 295 300 304 285 285 277 268 245 242 255 267 263 252 251
47 25 21 17 15 16 24 35 54 88 96 95 96 93 88 85 84 84 78 68 340 314 337 327 202 186 182 7 356 9 137 62 208 291 342 26 125 8 66 141 125 124 192 155 136 240 255 231 144 108 62 79 131 217 199 184 281 306 232 202 187 179 236 275 320 335 334 346 308 337 342 296 309 311 273 300 341 304 303 296 278 266 249 246 255 260 254 250
10 4 4 1 1 3 358 45 77 102 96 85 97 85 75 85 78 73 80 59 339 294 319 339 52 6 295 347 353 30 103 329 285 311 0 25 25 148 112 292 13 92 190 162 131 256 177 83 107 121 110 98 112 262 236 169 111 321 255 180 151 129 304 299 317 346 336 297 292 45 16 270 309 305 275 318 329 301 302 283 272 274 266 243 241 254 258 257
345 350 355 354 357 2 3 92 87 71 32 100 110 83 76 81 61 67 65 37 331 274 15 292 339 29 326 316 347 54 249 306 316 6 21 17 340 91 113 268 107 163 199 141 342 267 136 97 79 111 115 126 198 264 223 148 111 282 214 134 130 202 274 248 179 176 249 286 322 21 118 236 295 281 277 327 311 299 308 288 275 273 264 255 248 253 255 255
337 347 356 357 2 22 52 67 55 37 22 181 158 86 68 28 336 80 78 51 309 83 62 308 355 29 346 324 23 66 271 316 43 308 345 19 350 32 24 227 175 190 202 150 263 271 139 153 187 165 131 197 230 236 190 146 112 250 187 135 200 224 224 165 138 176 265 345 322 321 31 252 272 271 305 345 309 299 296 277 273 272 267 266 263 261 259 259
340 352 359 354 0 40 64 40 31 46 38 161 164 120 325 312 328 60 76 117 291 52 95 346 345 327 344 359 13 29 335 345 64 295 334 33 27 38 48 199 134 132 294 133 219 241 124 199 191 156 157 218 229 241 175 156 260 228 155 111 65 79 78 98 105 126 48 4 266 273 359 11 272 282 313 4 291 270 268 266 265 268 272 271 269 271 269 269
342 354 355 349 354 20 25 14 27 78 115 148 166 286 323 333 52 61 38 246 294 6 198 358 303 324 11 11 332 355 33 328 325 325 346 33 354 33 95 176 100 112 349 5 237 239 4 305 187 145 181 200 171 62 164 185 292 315 122 84 49 53 53 63 69 92 64 325 257 260 320 48 299 286 259 210 213 213 234 277 284 281 283 277 269 269 271 274
346 358 350 345 346 336 338 11 54 109 136 146 177 323 354 13 70 87 242 248 226 337 6 24 327 9 36 27 299 342 16 328 330 356 12 351 342 20 57 52 46 61 1 358 319 300 3 49 236 272 216 135 117 69 15 280 323 28 62 23 347 344 30 33 354 48 77 274 261 268 300 98 246 267 250 245 262 227 217 260 277 279 284 284 280 275 274 278
353 4 353 351 354 348 9 76 93 110 135 150 71 30 64 44 33 156 249 299 350 337 38 348 317 20 24 343 274 325 341 314 359 52 58 3 340 349 41 195 218 349 328 315 322 326 316 229 269 327 66 117 133 267 346 351 11 44 51 47 15 342 3 2 324 355 194 238 245 283 313 247 233 252 256 262 271 257 227 231 246 258 270 276 282 285 291 297
5 10 6 8 16 27 62 92 113 122 139 145 39 50 75 75 267 228 267 315 333 343 48 279 315 351 335 319 287 305 305 259 21 48 138 12 340 308 320 206 189 342 287 248 344 348 328 292 327 43 323 61 126 177 300 326 19 46 89 94 66 23 4 319 291 303 282 258 253 262 286 279 274 268 242 241 258 258 235 229 234 243 257 269 282 293 299 298
17 22 22 35 51 61 78 96 122 132 140 80 62 55 63 87 242 227 278 271 266 350 30 92 344 333 291 290 277 289 310 289 11 31 337 8 353 297 295 262 248 85 106 135 260 118 305 291 307 129 271 4 91 175 179 139 83 64 167 127 127 148 163 270 252 271 290 291 285 283 246 219 249 284 235 225 251 267 261 253 253 257 261 273 289 294 293 291
22 32 41 56 62 67 83 104 127 139 143 72 62 66 108 235 253 207 240 258 289 339 307 102 31 355 319 309 307 324 150 283 346 25 330 319 199 223 237 232 222 114 117 169 257 153 184 261 268 302 293 74 88 238 125 99 74 268 174 107 147 175 153 203 203 194 256 323 297 264 236 219 230 283 284 274 281 287 289 292 295 287 280 283 289 288 290 290
26 34 47 55 58 67 82 97 119 129 113 78 66 79 187 227 245 179 206 258 62 275 327 359 33 14 314 312 334 1 35 257 322 358 295 247 218 212 204 213 214 160 134 165 224 150 342 278 294 336 350 71 158 235 88 55 253 127 122 187 226 177 119 114 263 24 75 345 282 258 264 283 308 295 301 343 342 315 323 334 324 301 298 303 297 297 302 298
42 55 55 44 47 68 80 85 115 119 86 83 95 208 218 221 191 174 193 71 145 133 61 4 309 273 303 309 312 329 352 301 317 350 282 269 260 190 175 218 238 196 153 169 232 201 153 280 304 39 68 358 220 183 41 18 119 109 189 222 211 113 90 100 286 347 38 255 267 287 273 283 338 294 315 354 340 316 324 328 322 313 313 317 312 311 311 308
68 76 59 34 36 64 80 87 121 118 77 77 127 238 217 197 44 155 165 130 150 86 87 217 257 255 212 266 285 289 317 300 319 357 276 272 281 160 145 123 54 16 320 15 335 316 113 286 307 2 181 308 359 96 352 351 59 107 205 201 93 148 225 65 148 307 340 289 279 295 287 274 196 234 292 323 313 312 317 319 321 315 314 317 315 313 313 315
116 85 34 21 32 55 96 120 114 83 68 87 212 244 210 231 289 138 152 106 121 112 166 223 255 344 174 185 235 272 265 246 269 348 276 252 287 92 117 150 137 356 317 28 117 237 96 116 290 286 217 306 5 125 238 310 24 30 3 354 36 149 186 174 148 181 243 283 287 316 316 281 212 205 227 270 290 306 309 312 314 307 307 309 308 310 312 314
117 84 329 5 41 64 122 114 66 61 71 160 206 209 252 274 272 230 257 230 140 135 223 214 191 287 245 214 231 269 300 213 190 200 248 250 287 348 50 54 124 154 310 25 100 290 65 124 255 294 314 292 278 207 198 183 150 86 83 301 328 107 143 247 246 143 146 231 246 301 300 273 233 188 206 261 287 298 297 303 307 306 309 309 304 306 310 313
100 62 296 354 43 98 111 71 41 59 97 166 209 198 225 211 121 327 299 225 163 260 196 173 168 192 225 252 263 242 229 234 195 211 252 243 253 309 15 19 110 168 337 52 85 35 104 153 219 292 308 258 239 235 197 181 164 153 176 197 183 140 117 105 286 272 117 201 193 181 285 282 260 183 218 261 285 293 298 305 311 312 313 315 311 308 311 315
85 73 293 356 20 170 89 62 20 76 117 181 248 225 195 119 107 23 346 73 44 291 55 99 177 189 189 212 250 211 195 242 212 209 239 223 209 229 358 2 294 179 108 131 240 246 151 119 156 261 263 251 257 317 43 146 138 129 160 182 147 130 131 156 252 260 163 236 181 110 271 277 268 192 240 259 261 287 306 313 315 314 315 319 319 318 320 319
98 177 342 24 14 124 77 50 330 6 44 244 281 254 161 95 94 70 225 205 203 171 21 327 200 197 214 205 195 192 205 221 195 192 230 238 232 237 295 332 284 161 88 129 239 254 125 92 18 274 285 333 347 351 23 47 94 114 303 146 143 152 141 161 200 196 183 227 182 70 265 269 284 246 254 282 297 310 316 316 316 314 317 324 326 325 324 321
128 190 16 20 12 98 105 164 267 329 285 300 6 336 300 124 149 147 211 232 212 154 148 244 203 178 214 163 135 208 215 227 220 224 231 213 227 234 333 334 301 156 116 192 185 198 233 177 59 322 321 335 350 354 352 356 55 198 233 197 169 129 100 107 155 108 260 233 184 194 262 269 288 301 315 325 324 321 317 316 317 316 318 325 327 325 322 320
103 38 315 354 24 72 117 176 149 158 256 359 1 311 346 3 205 185 201 214 202 169 167 278 222 138 121 125 135 246 233 224 245 300 10 230 265 292 12 338 321 187 228 239 189 259 236 198 146 176 291 292 304 314 304 293 278 216 135 225 231 166 135 157 163 111 261 242 170 192 269 285 295 304 314 320 318 316 314 315 316 313 315 320 321 320 320 321
114 39 314 332 17 59 65 93 111 120 160 137 317 304 45 225 269 248 188 198 181 150 143 315 193 105 83 132 251 275 262 237 251 341 330 254 270 282 302 324 335 193 230 280 47 68 100 236 211 192 215 241 262 268 211 84 305 288 290 248 224 189 150 128 99 181 214 224 192 227 260 282 292 299 308 312 311 311 312 315 313 312 316 319 317 317 317 318
119 131 124 319 350 36 39 21 61 87 153 184 211 262 206 252 294 345 178 215 159 106 135 147 149 167 183 188 229 261 266 284 335 289 252 241 261 286 285 233 45 329 320 2 33 83 88 292 249 205 233 249 269 288 317 54 277 273 286 271 248 190 148 148 212 234 200 27 281 246 246 273 288 297 304 305 307 310 312 314 313 313 316 319 319 317 317 321
106 154 140 124 255 253 50 24 83 91 73 129 156 182 245 292 296 262 214 310 27 97 197 225 253 222 203 186 166 238 286 324 280 243 235 241 275 322 337 164 253 334 356 26 348 98 123 252 248 197 259 267 275 284 280 270 268 259 251 267 265 197 170 191 233 241 204 233 265 266 271 279 286 296 299 299 302 307 309 309 310 312 317 323 323 320 321 327
83 116 29 26 87 181 150 24 115 108 84 83 128 200 188 201 253 250 198 72 3 307 181 233 267 244 213 200 167 199 240 263 281 264 223 206 245 309 331 246 225 348 24 75 343 102 150 241 248 144 286 291 287 278 269 231 271 302 254 258 260 226 209 213 241 256 234 234 256 273 284 284 281 283 287 292 298 300 302 307 312 316 322 325 321 319 322 329
129 156 182 48 66 120 47 27 99 104 65 35 204 242 184 178 223 258 185 145 248 276 177 217 251 239 209 200 181 215 221 189 223 247 190 171 272 230 220 216 154 35 25 89 345 339 181 259 19 94 312 305 330 352 341 163 184 279 281 282 291 267 245 233 250 266 255 251 261 271 281 282 275 273 282 291 301 307 314 319 321 322 325 323 318 318 325 329
125 140 145 114 98 5 10 25 92 108 87 296 208 222 212 199 212 229 264 193 182 193 188 194 209 193 148 179 205 241 233 188 211 235 193 189 251 220 219 223 140 130 103 135 61 37 135 258 10 59 343 287 313 358 333 168 145 280 297 334 357 346 309 258 231 226 236 266 282 287 288 291 295 302 308 311 316 322 325 325 323 322 321 317 314 318 325 326
126 93 105 108 98 302 78 63 52 89 235 249 196 187 212 233 219 194 291 293 120 187 206 188 172 174 228 226 232 242 228 193 227 254 217 189 159 95 84 68 102 127 167 159 109 58 125 135 87 67 313 271 294 331 321 15 76 6 303 38 13 338 299 281 276 261 241 244 288 303 291 294 309 323 326 326 327 329 330 329 324 319 315 311 312 321 326 325